FW4321 Weather Reports


Display with metric or nautical units.
time (UTC)temp
F
wind
direction
speed
MPH
gust
MPH
rain 1hr
in
rain 24hr
in
rain mn
in
humidity
%
barometer
mb
20260505153033 75 279 2.0 8.0 0.00 0.00 0.00 51 1017.1
20260505151531 74 50 3.0 10.0 0.00 0.00 0.00 52 1017.3
20260505124512 67 258 0.0 8.0 0.00 0.00 0.00 60 1017.3
20260505123005 66 193 1.0 8.0 0.00 0.00 0.00 61 1017.4
20260505121504 65 360 3.0 9.0 0.00 0.00 0.00 62 1017.2
20260505120000 65 360 3.0 5.0 0.00 0.00 0.00 63 1017.3
20260505114605 64 360 1.0 8.0 0.00 0.00 0.00 64 1017.2
20260505113058 64 360 0.0 3.0 0.00 0.00 0.00 65 1017.4
20260505111601 64 360 1.0 6.0 0.00 0.00 0.00 65 1017.3
20260505101554 62 360 3.0 11.0 0.00 0.00 0.00 68 1017.4
20260505100100 62 360 2.0 10.0 0.00 0.00 0.00 68 1017.1
20260505094553 62 360 1.0 5.0 0.00 0.00 0.00 68 1016.7
20260505093053 62 360 3.0 10.0 0.00 0.00 0.00 68 1016.6
20260505091552 62 360 2.0 6.0 0.00 0.00 0.00 68 1016.8
20260505090106 62 360 2.0 8.0 0.00 0.00 0.00 68 1016.8
20260505084551 62 360 0.0 9.0 0.00 0.00 0.00 67 1016.7
20260505083101 61 360 1.0 5.0 0.00 0.00 0.00 68 1016.8
20260505081551 61 360 1.0 5.0 0.00 0.00 0.00 68 1016.6
20260505080054 61 360 1.0 5.0 0.00 0.00 0.00 68 1016.7
20260505074548 61 360 0.0 4.0 0.00 0.00 0.00 68 1016.7
20260505073056 61 360 0.0 6.0 0.00 0.00 0.00 68 1016.7
20260505071547 60 360 0.0 5.0 0.00 0.00 0.00 69 1016.7
20260505070052 61 360 0.0 3.0 0.00 0.00 0.00 67 1016.7
20260505064542 62 360 1.0 5.0 0.00 0.00 0.00 65 1016.7
20260505063041 62 360 0.0 4.0 0.00 0.00 0.00 64 1016.6
20260505061539 62 360 1.0 4.0 0.00 0.00 0.00 63 1016.7
20260505060037 62 360 0.0 5.0 0.00 0.00 0.00 62 1016.9
20260505054537 63 360 1.0 3.0 0.00 0.00 0.00 62 1016.9
20260505053035 63 360 0.0 4.0 0.00 0.00 0.00 61 1016.9
20260505051537 63 360 1.0 5.0 0.00 0.00 0.00 61 1017.0
20260505050109 63 360 2.0 6.0 0.00 0.00 0.00 60 1017.0
20260505041546 64 360 0.0 6.0 0.00 0.00 0.00 57 1017.3
20260505040028 64 360 3.0 12.0 0.00 0.00 0.00 56 1017.4
20260505034525 65 360 2.0 6.0 0.00 0.00 0.00 55 1017.4
20260505033025 65 360 2.0 8.0 0.00 0.00 0.00 54 1017.3
20260505031524 65 360 3.0 13.0 0.00 0.00 0.00 53 1017.4
20260505030029 65 360 0.0 6.0 0.00 0.00 0.00 52 1017.5
20260505024525 65 360 1.0 5.0 0.00 0.00 0.00 51 1017.5
20260505023025 66 360 1.0 5.0 0.00 0.00 0.00 51 1017.6
20260505021525 66 360 0.0 3.0 0.00 0.00 0.00 51 1017.6
20260505020021 66 360 2.0 5.0 0.00 0.00 0.00 51 1017.6
20260505014520 66 360 0.0 4.0 0.00 0.00 0.00 52 1017.5
20260505013021 67 360 0.0 6.0 0.00 0.00 0.00 51 1017.4
20260505011527 66 360 1.0 9.0 0.00 0.00 0.00 52 1017.2
20260505010018 66 360 0.0 6.0 0.00 0.00 0.00 55 1017.1
20260505004532 66 360 2.0 5.0 0.00 0.00 0.00 56 1016.9
20260505003018 66 360 1.0 10.0 0.00 0.00 0.00 56 1016.7
20260505001516 66 360 1.0 5.0 0.00 0.00 0.00 56 1016.4
20260505000027 66 360 1.0 5.0 0.00 0.00 0.00 56 1016.2
20260504234517 66 360 2.0 7.0 0.00 0.00 0.00 56 1016.1
20260504233015 67 87 0.0 7.0 0.00 0.00 0.00 55 1015.9
20260504231515 67 93 2.0 7.0 0.00 0.00 0.00 55 1015.8
20260504230018 68 92 3.0 8.0 0.00 0.00 0.00 54 1015.5
20260504224513 69 83 3.0 8.0 0.00 0.00 0.00 51 1015.6
20260504223012 69 76 0.0 9.0 0.00 0.00 0.00 51 1015.6
20260504221517 69 88 4.0 10.0 0.00 0.00 0.00 50 1015.7
20260504220011 70 88 3.0 11.0 0.00 0.00 0.00 48 1016.0
20260504214513 72 280 1.0 4.0 0.00 0.00 0.00 47 1016.1
20260504213031 71 102 7.0 10.0 0.00 0.00 0.00 47 1015.9
20260504211515 72 107 4.0 8.0 0.00 0.00 0.00 44 1016.0
20260504210011 74 269 4.0 9.0 0.00 0.00 0.00 37 1015.8
20260504204507 75 86 4.0 8.0 0.00 0.00 0.00 35 1015.7
20260504203009 74 254 0.0 18.0 0.00 0.00 0.00 34 1015.8
20260504201507 73 311 3.0 8.0 0.00 0.00 0.00 34 1015.8
20260504200003 74 71 1.0 11.0 0.00 0.00 0.00 34 1016.0
20260504194502 73 240 6.0 11.0 0.00 0.00 0.00 34 1016.2
20260504193111 74 304 3.0 10.0 0.00 0.00 0.00 34 1016.4
20260504191558 72 229 4.0 14.0 0.00 0.00 0.00 35 1016.5
20260504190116 72 209 2.0 7.0 0.00 0.00 0.00 34 1016.7
20260504184606 70 323 1.0 11.0 0.00 0.00 0.00 36 1016.9
20260504183055 72 203 6.0 14.0 0.00 0.00 0.00 35 1017.0
20260504181549 72 273 0.0 8.0 0.00 0.00 0.00 36 1017.2
20260504180048 70 264 4.0 12.0 0.00 0.00 0.00 36 1017.5
20260504174545 70 176 1.0 12.0 0.00 0.00 0.00 37 1017.7
20260504173048 69 184 8.0 14.0 0.00 0.00 0.00 37 1017.9
20260504171539 71 15 2.0 11.0 0.00 0.00 0.00 35 1017.7